GW4034 Weather Reports


Display with metric or nautical units.
time (UTC)temp
F
wind
direction
speed
MPH
gust
MPH
rain 1hr
in
rain 24hr
in
rain mn
in
humidity
%
barometer
mb
20260504200313 72 162 4.0 4.0 0.00 0.00 0.00 43 1013.8
20260504195809 73 200 1.0 2.0 0.00 0.00 0.00 41 1013.9
20260504195305 73 162 1.0 1.0 0.00 0.00 0.00 38 1013.9
20260504194802 73 183 2.0 2.0 0.00 0.00 0.00 39 1013.8
20260504194258 73 86 3.0 6.0 0.00 0.00 0.00 39 1013.8
20260504193754 73 247 2.0 3.0 0.00 0.00 0.00 40 1013.9
20260504193252 73 265 3.0 4.0 0.00 0.00 0.00 37 1013.9
20260504192750 73 323 8.0 10.0 0.00 0.00 0.00 37 1014.0
20260504192248 73 147 0.0 1.0 0.00 0.00 0.00 39 1014.1
20260504191747 72 198 2.0 3.0 0.00 0.00 0.00 38 1014.2
20260504191243 72 231 3.0 4.0 0.00 0.00 0.00 38 1014.3
20260504190739 72 269 4.0 6.0 0.00 0.00 0.00 37 1014.2
20260504190236 74 172 3.0 3.0 0.00 0.00 0.00 36 1014.4
20260504185732 73 267 2.0 3.0 0.00 0.00 0.00 39 1014.2
20260504185229 72 224 4.0 6.0 0.00 0.00 0.00 37 1014.2
20260504184725 72 190 1.0 1.0 0.00 0.00 0.00 43 1014.4
20260504184221 72 225 2.0 4.0 0.00 0.00 0.00 36 1014.4
20260504183717 72 228 5.0 7.0 0.00 0.00 0.00 37 1014.4
20260504183214 72 222 3.0 3.0 0.00 0.00 0.00 37 1014.5
20260504182712 72 293 6.0 9.0 0.00 0.00 0.00 35 1014.6
20260504182209 71 165 2.0 3.0 0.00 0.00 0.00 38 1014.6
20260504181707 71 138 3.0 3.0 0.00 0.00 0.00 37 1014.5
20260504181204 71 189 2.0 2.0 0.00 0.00 0.00 38 1014.9
20260504180703 71 305 2.0 3.0 0.00 0.00 0.00 38 1015.0
20260504180201 71 200 5.0 7.0 0.00 0.00 0.00 38 1015.0
20260504175658 70 194 2.0 2.0 0.00 0.00 0.00 40 1015.0
20260504175155 71 284 2.0 3.0 0.00 0.00 0.00 41 1015.0
20260504174653 70 180 1.0 1.0 0.00 0.00 0.00 38 1015.2
20260504174149 70 262 5.0 8.0 0.00 0.00 0.00 40 1015.1
20260504173646 70 248 5.0 7.0 0.00 0.00 0.00 37 1015.2
20260504173144 71 201 2.0 2.0 0.00 0.00 0.00 37 1015.1
20260504172641 71 239 4.0 7.0 0.00 0.00 0.00 38 1015.2
20260504172137 69 166 5.0 7.0 0.00 0.00 0.00 38 1015.5
20260504171633 69 288 10.0 13.0 0.00 0.00 0.00 37 1015.5
20260504171130 70 180 2.0 3.0 0.00 0.00 0.00 39 1015.5
20260504170626 69 205 3.0 6.0 0.00 0.00 0.00 39 1015.5
20260504170124 69 318 4.0 6.0 0.00 0.00 0.00 38 1015.6
20260504150958 66 223 6.0 13.0 0.00 0.00 0.00 40 1016.9
20260504150455 66 156 4.0 6.0 0.00 0.00 0.00 40 1017.0
20260504140922 62 202 5.0 7.0 0.00 0.00 0.00 44 1017.7
20260504140418 63 321 4.0 7.0 0.00 0.00 0.00 44 1017.6
20260504130343 59 164 3.0 4.0 0.00 0.00 0.00 50 1018.3
20260504120306 56 208 1.0 2.0 0.00 0.00 0.00 48 1018.3
20260504110230 51 185 2.0 2.0 0.00 0.00 0.00 55 1018.2
20260504100148 44 203 0.0 0.0 0.00 0.00 0.00 70 1018.0
20260504090111 50 200 1.0 1.0 0.00 0.00 0.00 53 1017.5
20260504081541 51 186 0.0 0.0 0.00 0.00 0.00 53 1017.5
20260504081037 51 281 3.0 3.0 0.00 0.00 0.00 52 1017.4
20260504080534 51 211 2.0 2.0 0.00 0.00 0.00 52 1017.4
20260504050346 40 190 0.0 0.0 0.00 0.00 0.00 83 1016.8
20260504045843 40 190 0.0 0.0 0.00 0.00 0.00 83 1016.8
20260504045343 40 190 0.0 0.0 0.00 0.00 0.00 83 1017.0
20260504044841 40 190 0.0 0.0 0.00 0.00 0.00 83 1016.9
20260504044338 40 190 0.0 0.0 0.00 0.00 0.00 83 1016.9
20260504043835 40 190 0.0 0.0 0.00 0.00 0.00 82 1016.8
20260504043332 40 190 0.0 0.0 0.00 0.00 0.00 82 1016.7
20260504042829 41 190 0.0 0.0 0.00 0.00 0.00 82 1016.7
20260504042325 41 190 0.0 0.0 0.00 0.00 0.00 82 1016.7
20260504041822 41 190 0.0 0.0 0.00 0.00 0.00 81 1016.7
20260504041318 41 190 0.0 0.0 0.00 0.00 0.00 81 1016.6
20260504040815 41 190 0.0 0.0 0.00 0.00 0.00 81 1016.6
20260504040312 41 190 0.0 0.0 0.00 0.00 0.00 81 1016.5
20260504035808 41 190 0.0 0.0 0.00 0.00 0.00 81 1016.6
20260504035305 41 190 0.0 0.0 0.00 0.00 0.00 81 1016.6
20260504034802 41 190 0.0 0.0 0.00 0.00 0.00 81 1016.5
20260504034300 41 190 0.0 0.0 0.00 0.00 0.00 80 1016.6
20260504033757 41 190 0.0 0.0 0.00 0.00 0.00 80 1016.6
20260504033255 41 190 0.0 0.0 0.00 0.00 0.00 79 1016.7
20260504032751 42 190 0.0 0.0 0.00 0.00 0.00 79 1016.5
20260504032248 41 190 0.0 0.0 0.00 0.00 0.00 78 1016.7
20260504031745 42 190 0.0 0.0 0.00 0.00 0.00 78 1016.6
20260504031243 42 190 0.0 0.0 0.00 0.00 0.00 78 1016.6
20260504030738 42 190 0.0 0.0 0.00 0.00 0.00 77 1016.7
20260504030236 42 190 0.0 0.0 0.00 0.00 0.00 77 1016.5
20260504025732 42 190 0.0 0.0 0.00 0.00 0.00 75 1016.6
20260504025229 43 190 0.0 0.0 0.00 0.00 0.00 74 1016.5
20260504024726 43 190 0.0 0.0 0.00 0.00 0.00 74 1016.5
20260504024222 43 190 0.0 0.0 0.00 0.00 0.00 73 1016.6
20260504023719 44 190 0.0 0.0 0.00 0.00 0.00 72 1016.5
20260504023215 44 190 0.0 0.0 0.00 0.00 0.00 72 1016.5
20260504022712 44 190 0.0 0.0 0.00 0.00 0.00 71 1016.4
20260504022208 45 190 0.0 0.0 0.00 0.00 0.00 70 1016.6
20260504021706 45 190 0.0 0.0 0.00 0.00 0.00 69 1016.7
20260504021202 45 190 0.0 0.0 0.00 0.00 0.00 69 1016.8
20260504020659 45 190 0.0 0.0 0.00 0.00 0.00 68 1016.7
20260504020155 46 190 0.0 0.0 0.00 0.00 0.00 68 1016.6
20260504015652 46 190 0.0 0.0 0.00 0.00 0.00 67 1016.4
20260504015148 46 190 0.0 0.0 0.00 0.00 0.00 67 1016.6
20260504014644 46 189 0.0 0.0 0.00 0.00 0.00 67 1016.5
20260504014141 46 190 0.0 0.0 0.00 0.00 0.00 65 1016.6
20260504013639 47 189 0.0 0.0 0.00 0.00 0.00 64 1016.3
20260504013136 47 190 0.0 0.0 0.00 0.00 0.00 62 1016.4
20260504012633 47 190 0.0 0.0 0.00 0.00 0.00 61 1016.4
20260504012131 48 181 0.0 0.0 0.00 0.00 0.00 60 1016.3
20260504011627 48 196 0.0 0.0 0.00 0.00 0.00 59 1016.2
20260504011124 49 217 1.0 1.0 0.00 0.00 0.00 57 1016.2
20260504010620 49 194 0.0 0.0 0.00 0.00 0.00 56 1016.2
20260504010116 49 194 0.0 0.0 0.00 0.00 0.00 56 1015.9
20260504005613 49 194 0.0 0.0 0.00 0.00 0.00 56 1016.0
20260504005110 50 194 0.0 0.0 0.00 0.00 0.00 55 1015.9
20260504004608 50 194 0.0 0.0 0.00 0.00 0.00 54 1015.9
20260504004105 51 194 0.0 0.0 0.00 0.00 0.00 52 1015.8
20260504003600 51 193 0.0 0.0 0.00 0.00 0.00 51 1015.7
20260504003057 52 193 0.0 0.0 0.00 0.00 0.00 51 1015.7
20260504002555 52 193 0.0 0.0 0.00 0.00 0.00 49 1015.4
20260504002052 53 193 0.0 0.0 0.00 0.00 0.00 48 1015.4
20260504001550 53 193 0.0 0.0 0.00 0.00 0.00 43 1015.5
20260504001045 54 193 0.0 0.0 0.00 0.00 0.00 41 1015.2
20260504000543 54 188 0.0 0.0 0.00 0.00 0.00 42 1015.3
20260504000040 55 187 0.0 0.0 0.00 0.00 0.00 39 1015.3
20260503235538 56 178 0.0 0.0 0.00 0.00 0.00 38 1015.2
20260503235035 56 190 0.0 1.0 0.00 0.00 0.00 37 1015.0
20260503234532 56 190 0.0 0.0 0.00 0.00 0.00 37 1015.1
20260503234031 57 259 1.0 2.0 0.00 0.00 0.00 36 1014.8
20260503233527 57 163 0.0 0.0 0.00 0.00 0.00 36 1014.9
20260503233023 58 89 2.0 3.0 0.00 0.00 0.00 35 1014.7
20260503232520 58 343 2.0 2.0 0.00 0.00 0.00 34 1014.8
20260503232018 59 21 4.0 6.0 0.00 0.00 0.00 34 1014.8
20260503231515 59 167 1.0 1.0 0.00 0.00 0.00 33 1014.6
20260503231012 59 212 1.0 1.0 0.00 0.00 0.00 34 1014.7
20260503230508 59 9 4.0 4.0 0.00 0.00 0.00 33 1014.7
20260503230006 60 246 4.0 4.0 0.00 0.00 0.00 32 1014.4
20260503225503 60 169 2.0 3.0 0.00 0.00 0.00 32 1014.4
20260503224958 60 210 1.0 1.0 0.00 0.00 0.00 33 1014.4
20260503224455 60 258 1.0 1.0 0.00 0.00 0.00 31 1014.5
20260503223953 60 303 1.0 1.0 0.00 0.00 0.00 32 1014.4
20260503223451 60 330 5.0 7.0 0.00 0.00 0.00 31 1014.5
20260503222946 60 211 1.0 2.0 0.00 0.00 0.00 33 1014.3
20260503222445 60 195 4.0 7.0 0.00 0.00 0.00 31 1014.4
20260503221942 59 58 6.0 8.0 0.00 0.00 0.00 31 1014.4
20260503221440 60 82 2.0 3.0 0.00 0.00 0.00 32 1014.4
20260503220937 60 191 2.0 3.0 0.00 0.00 0.00 32 1014.4
20260503220433 60 282 6.0 8.0 0.00 0.00 0.00 31 1014.5
20260503215931 60 264 3.0 4.0 0.00 0.00 0.00 32 1014.5
20260503215427 60 306 3.0 3.0 0.00 0.00 0.00 31 1014.4
20260503214925 59 313 5.0 7.0 0.00 0.00 0.00 31 1014.4
20260503214423 60 246 2.0 4.0 0.00 0.00 0.00 31 1014.6
20260503213920 60 271 5.0 6.0 0.00 0.00 0.00 31 1014.3
20260503213418 59 260 4.0 6.0 0.00 0.00 0.00 31 1014.2
20260503212914 59 16 4.0 6.0 0.00 0.00 0.00 31 1014.2
20260503212412 59 24 2.0 2.0 0.00 0.00 0.00 33 1014.2
20260503211909 60 201 2.0 2.0 0.00 0.00 0.00 33 1014.1
20260503211405 59 214 2.0 2.0 0.00 0.00 0.00 33 1014.2
20260503210901 59 307 5.0 9.0 0.00 0.00 0.00 35 1014.2
20260503210358 59 348 9.0 14.0 0.00 0.00 0.00 33 1014.1
20260503205853 59 171 1.0 1.0 0.00 0.00 0.00 34 1014.3
20260503205350 58 318 4.0 4.0 0.00 0.00 0.00 34 1014.2
20260503204846 59 193 4.0 8.0 0.00 0.00 0.00 34 1014.2
20260503204343 59 262 3.0 4.0 0.00 0.00 0.00 34 1014.4
20260503203841 59 327 2.0 3.0 0.00 0.00 0.00 35 1014.2
20260503203338 58 246 5.0 8.0 0.00 0.00 0.00 34 1014.3
20260503202835 58 293 4.0 4.0 0.00 0.00 0.00 34 1014.2
20260503202333 58 347 5.0 9.0 0.00 0.00 0.00 34 1014.3
20260503201831 60 346 4.0 6.0 0.00 0.00 0.00 34 1014.6
20260503201328 60 346 4.0 6.0 0.00 0.00 0.00 34 1014.6
20260503200825 59 132 1.0 2.0 0.00 0.00 0.00 34 1014.3